Tracking 19800 objects as of 24-Jul-2019
HD Live streaming from Space Station
objects crossing your sky now

DELTA 4 R/B

Track DELTA 4 R/B now!


NORAD ID: 28546
Int'l Code: 2004-050B
Perigee: 18,994.0 km
Apogee: 36,473.4 km
Inclination: 16.9 °
Period: 1,044.7 minutes
Semi major axis: 34104 km
RCS: Unknown
Launch date: December 21, 2004
Source: United States (US)
Launch site: AIR FORCE EASTERN TEST RANGE (AFETR)

Note: This is a ROCKET BODY
aabbcc
Your satellite tracking list
Your tracking list is empty




NASA's NSSDC Master Catalog

Two Line Element Set (TLE):
1 28546U 04050B   19204.53762894 -.00000123  00000-0  00000+0 0  9990
2 28546  16.8517  29.3294 2562612 194.4717 150.2251  1.37842209 73340
Source of the keplerian elements: McCants